Location: Bonac
(42.8765°N, 0.9753°E)
Time: 09:34:12
(UTC+00:00)

BREEZE-M DEB (TANK) - Pass Details

Date: 12 January 2026
Orbit: 273 x 16124 km, 49.5° (Epoch: 18 February)

Event Time Altitude Azimuth Distance (km) Brightness Sun altitude
Rises 18:10:33 0° 243° (WSW) 2,076 7.0 -15.5°
Reaches altitude 10° 18:11:49 10° 244° (WSW) 1,436 5.8 -15.8°
Maximum altitude 18:14:31 84° 334° (NNW) 634 2.5 -16.2°
Enters shadow 18:18:16 23° 61° (ENE) 2,140 4.7 -16.9°
